Location: Tr�vern
(48.0333°N, 4.6000°W)
Time: 03:00:28
(UTC+00:00)

Cosmos 1607 - Pass Details

Date: 14 July 2020
Orbit: 913 x 989 km, 65.0° (Epoch: 04 August)

Event Time Altitude Azimuth Distance (km) Brightness Sun altitude
Exits shadow 00:20:04 31° 212° (SSW) 1,591 4.7 -20.3°
Maximum altitude 00:23:15 85° 126° (SE) 959 3.9 -20.3°
Drops below altitude 10° 00:29:36 10° 39° (NE) 2,710 7.1 -20.3°
Sets 00:32:11 0° 39° (NE) 3,670 7.9 -20.3°
